Probability
0 0 0 0 0 0 0 0 0 0 0 0 0 0 0 0 0 0 0 0 0 0 0 0 0 0 0 0 0 0 0 0 0 0 0 0 0 0 0 0 0 0 0
0 0 0 0 0 0 0 0 0 0 0 0 0 0 0 0 0 0 0 0 0 0 0 0 0 0 0 0 0 0 0 0 0 0 0 0 0 0 0 0 0 0 0
0 0 0 0 0 0 0 0 0 0 0 0 0 0 0 0 0 0 0 0 0 0 0 0 0 0 0 0 0 0 0 0 0 0 0 0 0 0 0 0 0 0 0
0 0 0 0 0 0 0 0 0 0 0 0 0 0 0 0 0 0 0 0 0 0 0 0 0 0 0 0 0 0 0 0 0 0 0 0 0 0 0 0 0 0 0
0 0 0 0 0 0 0 0 0 0 0 0 0 0 0 0 0 0 0 0 0 0 0 0 0 0 0 0 0 0 0 0 0 0 0 0 0 0 0 0 0 0 0
0 0 0 0 0 0 0 0 0 0 0 0 0 0 0 0 0 0 0 0 0 0 0 0 0 0 0 0 0 0 0 0 0 0 0 0 0 0 0 0 0 0 0
0 0 0 0 0 0 0 0 0 0 0 0 0 0 0 0 0 0 0 0 0 0 0 0 0 0 0 0 0 0 0 0 0 0 0 0 0 0 0 0 0 0 0
0 0 0 0 0 0 0 0 0 0 0 0 0 0 0 0 0 0 0 0 0 0 0 0 0 0 0 0 0 0 0 0 0 0 0 0 0 0 0 0 0 0 0
0 0 0 0 0 0 0 0 0 0 0 0 0 0 0 0 0 0 0 0 0 0 0 0 0 0 0 0 0 0 0 0 0 0 0 0 0 0 0 0 0 0 0
0 0 0 0 0 0 0 0 0 0 0 0 0 0 0 0 0 0 0 0 0 0 0 0 0 0 0 0 0 0 0 0 0 0 0 0 0 0 0 0 0 0 0
0 0 0 0 0 0 0 0 0 0 0 0 0 0 0 0 0 0 0 0 0 0 0 0 0 0 0 0 0 0 0 0 0 0 0 0 0 0 0 0 0 0 0
0 0 0 0 0 0 0 0 0 0 0 0 0 0 0 0 0 0 0 0 0 0 0 0 0 0 0 0 0 0 0 0 0 0 0 0 0 0 0 0 0 0 0
0 0 0 0 0 0 0 0 0 0 0 0 0 0 0 0 0 0 0 0 0 0 0 0 0 0 0 0 0 0 0 0 0 0 0 0 0 0 0 0 0 0 0
0 0 0 0 0 0 0 0 0 0 0 0 0 0 0 0 0 0 0 0 0 0 0 0 0 0 0 0 0 0 0 0 0 0 0 0 0 0 0 0 0 0 0
0 0 0 0 0 0 0 0 0 0 0 0 0 0 0 0 0 0 0 0 0 0 0 0 0 0 0 0 0 0 0 0 0 0 0 0 0 0 0 0 0 0 0
0 0 0 0 0 0 0 0 0 0 0 0 0 0 0 0 0 0 0 0 0 0 0 0 0 0 0 0 0 0 0 0 0 0 0 0 0 0 0 0 0 0 0
0 0 0 0 0 0 0 0 0 0 0 0 0 0 0 0 0 0 0 0 0 0 0 0 0 0 0 0 0 0 0 0 0 0 0 0 0 0 0 0 0 0 0
0 0 0 0 0 0 0 0 0 0 0 0 0 0 0 0 0 0 0 0 0 0 0 0 0 0 0 0 0 0 0 0 0 0 0 0 0 0 0 0 0 0 0
0 0 0 0 0 0 0 0 0 0 0 0 0 0 0 0 0 0 0 0 0 0 0 0 0 0 0 0 0 0 0 0 0 0 0 0 0 0 0 0 0 0 0
0 0 0 0 0 0 0 0 0 0 0 0 0 0 0 0 0 0 0 0 0 0 0 0 0 0 0 0 0 0 0 0 0 0 0 0 0 0 0 0 0 0 0
0 0 0 0 0 0 0 0 0 0 0 0 0 0 0 0 0 0 0 0 0 0 0 0 0 0 0 0 0 0 0 0 0 0 0 0 0 0 0 0 0 0 0
0 0 0 0 0 0 0 0 0 0 0 0 0 0 0 0 0 0 0 0 0 0 0 0 0 0 0 0 0 0 0 0 0 0 0 0 0 0 0 0 0 0 0
0 0 0 0 0 0 0 0 0 0 0 0 0 0 0 0 0 0 0 0 0 0 0 0 0 0 0 0 0 0 0 0 0 0 0 0 0 0 0 0 0 0 0
0 0 0 0 0 0 0 0 0 0 0 0 0 0 0 0 0 0 0 0 0 0 0 0 0 0 0 0 0 0 0 0 0 0 0 0 0 0 0 0 0 0 0
0 0 0 0 0 0 0 0 0 0 0 0 0 0 0 0 0 0 0 0 0 0 0 0 0 0 0 0 0 0 0 0 0 0 0 0 0 0 0 0 0 0 0
0 0 0 0 0 0 0 0 0 0 0 0 0 0 0 0 0 0 0 0 0 0 0 0 0 0 0 0 0 0 0 0 0 0 0 0 0 0 0 0 0 0 0
Wind_Speed
8 7 8 8 8 8 8 8 7 6 5 3 3 3 2 1 1 1 1 1 1 1 1 0 0 1 0 1 1 1 2 2 2 2 4 4 3 3 3 3 3 3 4
5 7 8 8 9 10 9 9 8 7 6 4 3 2 2 2 1 1 0 1 1 1 0 0 0 0 0 1 1 1 1 2 2 1 2 4 4 3 4 3 3 3 3
10 10 9 9 9 10 11 9 9 8 6 5 3 2 2 1 0 0 1 1 1 1 1 1 0 1 0 1 1 1 1 1 2 0 0 1 3 5 3 3 3 3 3
9 9 10 10 11 10 9 9 9 8 6 6 6 6 4 3 3 2 2 2 2 2 2 1 1 1 1 1 2 1 1 1 2 1 1 2 2 3 6 4 3 4 5
9 10 11 12 10 9 9 8 8 7 7 7 7 6 3 2 1 1 1 2 2 2 2 2 2 2 2 2 2 2 2 2 2 2 1 2 2 3 4 8 7 4 4
7 8 8 8 7 7 7 8 8 7 7 7 6 6 5 3 3 2 2 2 2 2 2 2 2 2 2 3 3 3 3 3 3 2 2 2 2 3 3 6 9 8 6
5 6 7 8 9 9 8 8 9 7 7 7 6 6 6 5 5 4 3 3 2 2 3 2 2 3 3 3 3 3 3 3 3 3 3 3 3 3 3 5 8 9 7
4 5 7 9 9 10 9 9 9 7 7 7 6 5 5 4 3 4 3 3 3 3 3 3 3 3 3 3 3 3 3 3 3 4 4 3 4 3 3 4 6 8 7
3 3 5 7 8 9 9 9 9 7 7 7 6 5 5 4 4 3 3 3 3 2 3 3 3 3 3 3 3 3 4 3 4 4 4 4 4 3 4 3 3 5 9
1 1 2 4 6 7 6 7 7 7 6 6 6 5 4 4 4 3 3 3 3 3 2 3 3 3 3 4 3 3 4 4 4 3 4 4 4 4 3 3 4 4 6
1 1 1 1 3 4 5 5 5 5 5 5 5 4 4 3 3 3 3 3 3 3 3 3 3 4 4 4 3 4 4 4 5 4 4 5 5 4 4 3 4 4 5
1 1 2 2 3 3 3 3 4 4 5 4 4 4 3 3 3 3 3 3 3 3 3 3 3 4 4 4 4 5 4 5 5 5 5 6 5 5 4 4 5 5 5
2 3 2 2 2 2 2 2 3 3 3 3 3 3 3 3 3 3 3 2 2 2 2 2 3 4 4 4 4 4 5 5 5 5 5 6 5 6 5 5 5 5 6
2 2 2 2 1 1 2 2 2 2 2 3 3 3 3 3 3 3 2 2 2 2 2 3 3 4 4 4 4 4 5 5 5 5 5 6 6 7 7 6 6 6 6
2 2 1 1 1 1 1 1 1 1 2 3 2 2 2 2 1 1 1 1 1 2 2 2 3 3 3 3 4 4 4 5 5 5 5 6 8 10 8 6 6 6 5
0 0 1 1 1 0 0 1 1 1 2 2 2 2 1 1 1 1 1 0 1 1 1 2 3 3 3 6 7 5 4 4 5 6 6 6 7 9 11 12 11 9 7
1 1 1 1 1 1 1 1 1 1 2 2 1 1 1 1 1 1 0 0 1 1 2 3 3 3 5 7 7 7 4 4 4 5 5 6 7 9 6 9 11 10 12
1 1 1 1 1 1 0 1 1 2 2 2 1 1 1 1 0 1 0 1 1 1 2 3 3 4 5 7 8 8 4 3 4 5 5 6 7 7 8 6 6 6 7
1 1 1 1 1 1 1 2 2 2 2 2 1 1 1 1 1 0 1 1 1 2 2 3 3 4 5 7 8 7 3 3 4 5 5 6 6 10 11 7 7 7 7
1 1 1 1 1 1 1 2 2 2 2 1 1 1 1 1 0 0 1 1 1 1 2 3 3 3 4 7 8 7 2 3 4 5 5 8 8 11 11 7 6 7 7
2 2 2 1 1 1 2 2 2 1 0 1 1 2 1 1 1 1 1 1 1 1 2 3 3 3 4 6 7 7 3 3 4 5 5 5 10 11 12 10 5 7 8
3 3 2 2 2 2 3 3 1 1 1 2 2 2 2 1 1 1 1 1 1 1 2 3 4 3 3 5 6 8 7 6 4 5 4 5 11 11 11 8 8 10 8
2 2 2 3 3 2 2 3 1 1 2 3 2 2 2 2 1 1 1 1 1 1 2 2 3 4 3 4 7 8 8 8 5 4 7 9 10 10 7 8 9 7 4
2 2 3 3 3 3 3 2 1 2 3 2 2 2 2 2 2 1 1 1 1 1 2 2 3 3 4 3 3 3 4 6 5 4 6 8 8 6 7 7 6 4 3
2 2 2 2 2 3 3 3 2 2 3 2 2 2 2 2 2 2 2 1 1 1 2 2 2 3 4 5 8 5 4 3 4 5 3 3 4 4 4 4 4 4 4
3 3 3 3 3 3 3 3 3 2 2 2 2 1 1 1 1 2 3 4 4 4 4 3 3 3 5 8 8 8 8 8 7 4 3 3 4 4 5 5 5 4 4
Wind_Direction
208 185 177 169 160 160 160 162 157 161 152 145 149 151 166 177 182 195 172 157 151 140 125 78 1 26 17 314 316 310 325 326 332 341 325 314 303 300 284 281 276 278 282
195 183 177 172 170 171 170 168 167 166 168 167 166 160 158 176 193 200 185 191 182 184 164 158 238 294 337 343 328 339 333 324 0 10 340 331 326 314 293 287 275 276 282
194 188 181 182 177 176 176 175 174 170 170 159 136 110 81 63 60 220 222 236 215 205 200 197 216 262 217 258 275 261 221 287 308 1 146 318 299 313 301 293 283 281 283
198 189 181 182 184 183 177 172 171 170 167 158 156 160 167 182 209 203 214 241 232 225 222 218 222 239 242 247 258 252 230 225 277 301 242 226 247 292 306 303 293 286 283
196 191 186 184 184 179 173 171 168 170 166 165 166 168 175 190 190 184 204 237 253 244 238 229 222 234 245 249 252 258 251 231 239 254 270 285 281 255 275 298 307 299 275
198 192 185 174 173 170 167 167 168 173 171 169 170 176 178 181 175 191 210 235 254 257 256 250 240 240 245 250 248 243 246 245 244 248 242 245 258 270 267 285 299 301 297
183 176 175 174 171 169 170 172 172 176 176 174 178 184 184 183 187 196 208 217 238 251 254 259 250 246 248 252 251 246 252 246 244 244 248 247 250 257 263 280 293 299 299
184 181 181 179 174 172 172 174 177 179 179 179 185 185 182 183 196 206 206 214 226 236 243 250 254 252 251 257 257 253 252 249 248 258 257 258 258 254 257 266 291 302 299
186 185 182 176 174 174 177 178 177 177 182 183 181 182 183 187 199 209 211 218 230 237 239 245 255 261 261 259 257 257 258 254 252 259 261 261 262 257 257 259 262 278 297
139 133 162 178 174 173 172 172 175 180 182 181 182 183 186 192 196 198 211 222 233 235 240 251 259 265 265 263 258 261 259 255 260 260 263 267 269 265 260 258 263 257 269
123 128 111 139 148 147 153 162 171 171 177 183 183 180 188 191 190 203 216 224 231 232 241 250 256 261 264 262 258 264 265 262 268 271 270 272 271 271 270 264 264 263 263
83 83 81 78 102 127 142 158 169 174 184 183 176 178 181 181 191 209 220 223 225 235 243 250 258 264 266 261 257 263 268 265 268 272 274 277 281 277 274 268 267 269 264
60 55 57 69 93 127 139 153 165 176 175 163 161 164 176 185 203 215 223 222 220 242 256 254 260 266 267 260 257 257 264 265 264 267 271 277 279 281 279 273 272 272 276
83 64 42 41 53 126 147 150 158 162 158 150 156 170 192 200 209 216 221 220 219 239 259 266 268 272 269 265 261 262 268 272 272 269 268 271 271 275 278 277 274 278 282
64 66 41 15 13 44 123 143 146 149 146 147 163 191 205 198 187 203 214 213 231 263 269 277 284 284 276 273 279 272 275 279 285 285 281 280 286 288 289 288 286 284 284
273 35 41 24 1 329 207 162 150 151 141 154 182 186 173 164 165 184 186 216 272 278 288 288 286 288 293 302 302 301 283 280 284 291 293 291 288 293 297 295 293 289 286
223 225 250 258 270 261 208 183 177 134 126 136 154 152 151 149 164 158 125 253 271 283 292 289 290 289 294 306 307 305 301 288 285 288 294 299 301 303 291 292 296 296 292
221 264 265 282 305 292 134 126 112 114 114 105 98 100 110 117 123 118 163 288 292 289 289 297 298 298 302 311 313 316 306 293 290 288 289 294 299 300 303 300 301 295 294
249 263 281 277 319 7 114 111 97 100 105 101 88 79 102 109 92 110 272 296 324 319 314 311 306 305 305 313 317 321 307 302 299 298 301 301 296 303 311 311 304 302 301
2 7 344 356 40 14 96 112 111 105 111 122 123 93 92 98 101 265 299 344 339 311 320 325 322 313 307 315 321 324 310 307 308 308 303 305 308 310 315 311 305 306 307
31 33 33 34 19 44 100 110 103 110 125 89 74 63 60 69 58 25 24 12 357 348 336 329 326 323 320 323 325 326 323 305 306 307 309 308 316 317 319 320 312 306 312
28 33 47 28 15 57 98 95 81 47 63 68 59 44 35 32 39 51 21 20 16 355 338 335 329 325 324 331 327 331 332 326 311 305 308 313 321 323 325 329 326 328 329
40 34 48 36 22 35 83 94 42 59 71 69 54 36 31 35 42 57 31 9 12 351 329 330 326 326 328 326 332 333 334 333 328 312 318 325 333 336 335 339 340 342 341
63 54 54 49 28 26 49 66 48 68 82 75 54 38 41 27 21 26 30 16 344 328 320 324 322 321 324 321 320 321 327 335 334 327 326 334 341 341 340 345 348 346 340
56 58 62 50 27 31 40 34 39 65 73 66 51 36 35 32 21 19 22 353 311 289 303 299 298 309 317 322 328 330 326 322 321 326 331 338 342 350 351 350 350 346 345
56 56 55 46 31 35 31 20 23 55 77 62 43 29 23 19 22 23 8 12 9 359 351 337 323 310 315 324 333 338 340 342 340 343 344 344 346 345 342 342 342 341 340